WXM80 ListenWXM80 Stop

You find our weather info also at:

UK Metoffice

WeatherCloud

Weather Underground

Northeastern Weather Network

AWEKAS

Citizen Weather Observer Program (CWOP)

HAMweather, WeatherForYou, PWS Weather


Weather Underground History page Text

Daily Summary for December 30, 2016 Units:  English    Metric   Both
« Previous Day
Next Day »
Daily Weekly Monthly Yearly Custom
  High: Low: Average:
Temperature: 41.6 °F 34.1 °F 37.3 °F
Dew Point: 31.7 °F 23.2 °F 28.3 °F
Humidity: 78 % 53 % 70 %
Wind Speed: 13.3 mph 1.5 mph 6.4 mph
Wind Gust: 29.0 mph - -
Wind:- - WSW
Pressure: 29.95 in 29.48 in -
Precipitation: 0.00 in    
Historical Graphs
 
 
Tabular Data for December 30, 2016
Time Temperature Dew Point Pressure Wind Wind Speed Wind Gust Humidity Rainfall Rate (Hourly)
00:03 38.0 °F 31.7 °F 29.48 in WSW 8.1 mph 29.0 mph 78 % 0.00 in
00:08 38.0 °F 31.7 °F 29.48 in SW 5.1 mph 29.0 mph 78 % 0.00 in
00:13 38.0 °F 31.7 °F 29.48 in WSW 8.9 mph 29.0 mph 78 % 0.00 in
00:18 38.0 °F 31.4 °F 29.48 in WNW 8.1 mph 29.0 mph 77 % 0.00 in
00:23 38.0 °F 31.4 °F 29.49 in WSW 8.5 mph 29.0 mph 77 % 0.00 in
00:28 38.0 °F 31.4 °F 29.48 in WNW 5.3 mph 29.0 mph 77 % 0.00 in
00:33 37.9 °F 31.3 °F 29.49 in SSW 6.2 mph 29.0 mph 77 % 0.00 in
00:39 37.9 °F 31.3 °F 29.49 in West 3.7 mph 29.0 mph 77 % 0.00 in
00:44 37.9 °F 31.3 °F 29.49 in NNW 4.4 mph 29.0 mph 77 % 0.00 in
00:49 37.9 °F 31.3 °F 29.49 in WSW 6.4 mph 29.0 mph 77 % 0.00 in
00:54 37.9 °F 31.0 °F 29.48 in SW 9.1 mph 29.0 mph 76 % 0.00 in
00:59 37.9 °F 31.0 °F 29.49 in West 4.4 mph 29.0 mph 76 % 0.00 in
01:04 37.9 °F 31.0 °F 29.49 in WSW 10.4 mph 29.0 mph 76 % 0.00 in
01:09 37.9 °F 31.0 °F 29.49 in WSW 6.9 mph 29.0 mph 76 % 0.00 in
01:14 37.9 °F 31.0 °F 29.49 in SW 6.2 mph 29.0 mph 76 % 0.00 in
01:19 37.9 °F 31.0 °F 29.49 in SW 5.5 mph 29.0 mph 76 % 0.00 in
01:24 37.8 °F 30.6 °F 29.49 in WSW 9.1 mph 29.0 mph 75 % 0.00 in
01:29 37.8 °F 30.6 °F 29.49 in West 8.6 mph 29.0 mph 75 % 0.00 in
01:34 37.7 °F 30.5 °F 29.49 in West 7.0 mph 12.0 mph 75 % 0.00 in
01:39 37.7 °F 30.5 °F 29.49 in WSW 3.0 mph 13.0 mph 75 % 0.00 in
01:44 37.6 °F 30.4 °F 29.49 in WSW 7.0 mph 15.0 mph 75 % 0.00 in
01:49 37.6 °F 30.4 °F 29.50 in West 7.0 mph 14.0 mph 75 % 0.00 in
01:59 37.5 °F 30.3 °F 29.50 in SW 4.9 mph 29.0 mph 75 % 0.00 in
02:04 37.5 °F 30.3 °F 29.50 in West 6.0 mph 17.0 mph 75 % 0.00 in
02:09 37.5 °F 30.6 °F 29.50 in WSW 6.0 mph 13.0 mph 76 % 0.00 in
02:14 37.4 °F 30.5 °F 29.50 in WSW 6.0 mph 12.0 mph 76 % 0.00 in
02:19 37.3 °F 30.4 °F 29.51 in SW 6.6 mph 29.0 mph 76 % 0.00 in
02:24 37.3 °F 30.1 °F 29.51 in WSW 7.0 mph 18.0 mph 75 % 0.00 in
02:29 37.3 °F 30.1 °F 29.51 in WSW 7.0 mph 12.0 mph 75 % 0.00 in
02:34 37.3 °F 29.8 °F 29.51 in WSW 6.0 mph 20.0 mph 74 % 0.00 in
02:44 37.4 °F 29.8 °F 29.51 in WSW 3.0 mph 12.0 mph 74 % 0.00 in
02:49 37.2 °F 29.3 °F 29.51 in WSW 6.0 mph 17.0 mph 73 % 0.00 in
02:54 37.1 °F 29.3 °F 29.51 in SW 5.0 mph 10.0 mph 73 % 0.00 in
02:59 37.0 °F 29.1 °F 29.51 in WSW 4.6 mph 29.0 mph 73 % 0.00 in
03:04 36.9 °F 29.1 °F 29.50 in South 5.1 mph 29.0 mph 73 % 0.00 in
03:09 36.8 °F 29.0 °F 29.51 in WSW 4.2 mph 29.0 mph 73 % 0.00 in
03:14 36.7 °F 29.2 °F 29.50 in WSW 5.0 mph 29.0 mph 74 % 0.00 in
03:19 36.6 °F 29.1 °F 29.50 in West 6.4 mph 29.0 mph 74 % 0.00 in
03:24 36.6 °F 29.1 °F 29.50 in WSW 7.1 mph 29.0 mph 74 % 0.00 in
03:29 36.5 °F 29.0 °F 29.50 in SW 2.9 mph 29.0 mph 74 % 0.00 in
03:35 36.4 °F 28.9 °F 29.50 in WSW 6.0 mph 29.0 mph 74 % 0.00 in
03:40 36.4 °F 29.2 °F 29.50 in West 5.9 mph 29.0 mph 75 % 0.00 in
03:45 36.3 °F 29.1 °F 29.51 in WNW 6.0 mph 29.0 mph 75 % 0.00 in
03:50 36.2 °F 29.0 °F 29.50 in WSW 4.6 mph 29.0 mph 75 % 0.00 in
03:55 36.2 °F 29.0 °F 29.50 in SW 4.9 mph 29.0 mph 75 % 0.00 in
04:00 36.2 °F 29.4 °F 29.50 in WSW 3.8 mph 29.0 mph 76 % 0.00 in
04:05 36.2 °F 29.4 °F 29.50 in West 5.8 mph 29.0 mph 76 % 0.00 in
04:10 36.2 °F 29.4 °F 29.50 in SW 7.7 mph 29.0 mph 76 % 0.00 in
04:15 36.3 °F 29.1 °F 29.50 in WSW 8.0 mph 29.0 mph 75 % 0.00 in
04:20 36.3 °F 29.1 °F 29.50 in WSW 4.7 mph 29.0 mph 75 % 0.00 in
04:25 36.3 °F 29.1 °F 29.50 in SW 5.9 mph 29.0 mph 75 % 0.00 in
04:30 36.4 °F 29.2 °F 29.50 in WSW 6.7 mph 29.0 mph 75 % 0.00 in
04:35 36.4 °F 28.9 °F 29.50 in South 4.6 mph 29.0 mph 74 % 0.00 in
04:40 36.4 °F 29.2 °F 29.50 in SW 6.3 mph 29.0 mph 75 % 0.00 in
04:45 36.4 °F 28.9 °F 29.50 in WSW 6.0 mph 29.0 mph 74 % 0.00 in
04:51 36.4 °F 28.9 °F 29.50 in WSW 6.4 mph 29.0 mph 74 % 0.00 in
04:56 36.4 °F 28.9 °F 29.51 in West 3.4 mph 29.0 mph 74 % 0.00 in
05:01 36.3 °F 28.8 °F 29.51 in SSW 7.5 mph 29.0 mph 74 % 0.00 in
05:06 36.3 °F 28.8 °F 29.51 in West 3.6 mph 29.0 mph 74 % 0.00 in
05:11 36.2 °F 28.7 °F 29.51 in SW 4.3 mph 29.0 mph 74 % 0.00 in
05:16 36.2 °F 28.7 °F 29.51 in SW 4.4 mph 29.0 mph 74 % 0.00 in
05:21 36.1 °F 28.6 °F 29.51 in West 6.1 mph 29.0 mph 74 % 0.00 in
05:26 36.1 °F 28.6 °F 29.52 in SW 7.4 mph 29.0 mph 74 % 0.00 in
05:31 36.0 °F 28.8 °F 29.52 in WSW 8.8 mph 29.0 mph 75 % 0.00 in
05:36 36.0 °F 28.8 °F 29.52 in SW 7.3 mph 29.0 mph 75 % 0.00 in
05:41 35.9 °F 28.7 °F 29.53 in SSW 4.3 mph 29.0 mph 75 % 0.00 in
05:46 35.8 °F 28.6 °F 29.53 in SW 6.2 mph 29.0 mph 75 % 0.00 in
05:52 35.7 °F 28.6 °F 29.53 in West 7.3 mph 29.0 mph 75 % 0.00 in
05:57 35.7 °F 28.6 °F 29.53 in WNW 4.7 mph 29.0 mph 75 % 0.00 in
06:02 35.6 °F 28.8 °F 29.53 in SSW 5.8 mph 29.0 mph 76 % 0.00 in
06:07 35.5 °F 28.7 °F 29.53 in South 6.4 mph 29.0 mph 76 % 0.00 in
06:12 35.5 °F 28.7 °F 29.53 in SSW 2.7 mph 29.0 mph 76 % 0.00 in
06:17 35.4 °F 28.6 °F 29.53 in WSW 6.7 mph 29.0 mph 76 % 0.00 in
06:22 35.4 °F 28.6 °F 29.53 in South 3.4 mph 29.0 mph 76 % 0.00 in
06:27 35.4 °F 28.6 °F 29.53 in WSW 5.1 mph 29.0 mph 76 % 0.00 in
06:32 35.5 °F 28.7 °F 29.53 in SW 10.0 mph 29.0 mph 76 % 0.00 in
06:37 35.5 °F 28.7 °F 29.54 in WSW 4.7 mph 29.0 mph 76 % 0.00 in
06:42 35.6 °F 28.8 °F 29.54 in WSW 9.2 mph 29.0 mph 76 % 0.00 in
06:47 35.6 °F 28.8 °F 29.54 in WSW 7.6 mph 29.0 mph 76 % 0.00 in
06:52 35.7 °F 28.9 °F 29.55 in SW 5.3 mph 29.0 mph 76 % 0.00 in
06:58 35.8 °F 29.0 °F 29.55 in WSW 5.1 mph 29.0 mph 76 % 0.00 in
07:03 35.8 °F 29.0 °F 29.54 in SW 6.7 mph 29.0 mph 76 % 0.00 in
07:08 35.9 °F 29.4 °F 29.54 in West 6.4 mph 29.0 mph 77 % 0.00 in
07:13 35.9 °F 29.4 °F 29.54 in WSW 6.2 mph 29.0 mph 77 % 0.00 in
07:18 35.9 °F 29.4 °F 29.55 in WSW 9.1 mph 29.0 mph 77 % 0.00 in
07:23 35.9 °F 29.4 °F 29.54 in SW 8.0 mph 29.0 mph 77 % 0.00 in
07:28 36.0 °F 29.5 °F 29.54 in SW 7.6 mph 29.0 mph 77 % 0.00 in
07:33 36.0 °F 29.5 °F 29.55 in West 6.1 mph 29.0 mph 77 % 0.00 in
07:38 36.0 °F 29.5 °F 29.54 in West 7.9 mph 29.0 mph 77 % 0.00 in
07:43 36.0 °F 29.5 °F 29.55 in WSW 7.5 mph 29.0 mph 77 % 0.00 in
07:48 36.1 °F 29.6 °F 29.55 in SW 5.2 mph 29.0 mph 77 % 0.00 in
07:58 36.2 °F 29.7 °F 29.55 in West 7.9 mph 29.0 mph 77 % 0.00 in
08:03 36.3 °F 29.8 °F 29.55 in West 6.5 mph 29.0 mph 77 % 0.00 in
08:09 36.3 °F 29.5 °F 29.55 in SW 6.0 mph 29.0 mph 76 % 0.00 in
08:14 36.4 °F 29.6 °F 29.55 in SSW 6.5 mph 29.0 mph 76 % 0.00 in
08:19 36.4 °F 29.6 °F 29.56 in WSW 8.6 mph 29.0 mph 76 % 0.00 in
08:24 36.6 °F 29.7 °F 29.56 in WSW 6.9 mph 29.0 mph 76 % 0.00 in
08:29 36.6 °F 29.7 °F 29.56 in SSW 6.5 mph 29.0 mph 76 % 0.00 in
08:34 36.8 °F 29.9 °F 29.56 in WSW 3.2 mph 29.0 mph 76 % 0.00 in
08:39 36.9 °F 29.7 °F 29.56 in West 8.4 mph 29.0 mph 75 % 0.00 in
08:44 36.9 °F 29.7 °F 29.57 in SW 6.4 mph 29.0 mph 75 % 0.00 in
08:49 37.0 °F 29.8 °F 29.57 in WSW 5.2 mph 29.0 mph 75 % 0.00 in
08:54 37.1 °F 29.9 °F 29.57 in WNW 5.9 mph 29.0 mph 75 % 0.00 in
08:59 37.2 °F 30.0 °F 29.58 in SSW 5.3 mph 29.0 mph 75 % 0.00 in
09:04 37.4 °F 29.9 °F 29.58 in WSW 4.8 mph 29.0 mph 74 % 0.00 in
09:09 37.5 °F 29.6 °F 29.58 in West 7.1 mph 29.0 mph 73 % 0.00 in
09:14 37.7 °F 29.5 °F 29.58 in West 8.2 mph 29.0 mph 72 % 0.00 in
09:19 37.8 °F 29.6 °F 29.58 in SSW 7.2 mph 29.0 mph 72 % 0.00 in
09:24 37.9 °F 29.7 °F 29.58 in WSW 9.0 mph 29.0 mph 72 % 0.00 in
09:30 38.0 °F 29.8 °F 29.59 in WNW 8.1 mph 29.0 mph 72 % 0.00 in
09:35 38.2 °F 30.0 °F 29.59 in West 8.7 mph 29.0 mph 72 % 0.00 in
09:40 38.3 °F 29.7 °F 29.59 in WSW 5.1 mph 29.0 mph 71 % 0.00 in
09:45 38.4 °F 29.8 °F 29.60 in WSW 13.3 mph 29.0 mph 71 % 0.00 in
09:50 38.5 °F 29.9 °F 29.60 in WSW 7.2 mph 29.0 mph 71 % 0.00 in
09:55 38.7 °F 30.1 °F 29.60 in SW 6.9 mph 29.0 mph 71 % 0.00 in
10:00 38.8 °F 29.8 °F 29.60 in West 11.1 mph 29.0 mph 70 % 0.00 in
10:05 38.8 °F 29.8 °F 29.60 in WSW 5.7 mph 29.0 mph 70 % 0.00 in
10:10 39.0 °F 30.0 °F 29.60 in WSW 7.7 mph 29.0 mph 70 % 0.00 in
10:15 39.2 °F 29.9 °F 29.60 in SW 8.1 mph 29.0 mph 69 % 0.00 in
10:20 39.4 °F 29.7 °F 29.60 in WSW 6.8 mph 29.0 mph 68 % 0.00 in
10:25 39.5 °F 29.4 °F 29.60 in West 9.3 mph 29.0 mph 67 % 0.00 in
10:30 39.6 °F 29.5 °F 29.60 in West 9.1 mph 29.0 mph 67 % 0.00 in
10:35 39.6 °F 29.5 °F 29.60 in West 5.4 mph 29.0 mph 67 % 0.00 in
10:40 39.8 °F 29.4 °F 29.60 in West 2.5 mph 29.0 mph 66 % 0.00 in
10:45 40.0 °F 29.6 °F 29.60 in West 3.4 mph 29.0 mph 66 % 0.00 in
10:51 40.3 °F 29.5 °F 29.60 in WNW 8.1 mph 29.0 mph 65 % 0.00 in
10:56 40.5 °F 29.3 °F 29.61 in WSW 11.1 mph 29.0 mph 64 % 0.00 in
11:01 40.6 °F 29.4 °F 29.60 in WSW 5.2 mph 29.0 mph 64 % 0.00 in
11:06 40.7 °F 28.7 °F 29.60 in West 7.0 mph 29.0 mph 62 % 0.00 in
11:11 40.9 °F 29.3 °F 29.60 in SSW 6.3 mph 29.0 mph 63 % 0.00 in
11:16 41.0 °F 29.0 °F 29.60 in WSW 11.7 mph 29.0 mph 62 % 0.00 in
11:21 41.0 °F 29.0 °F 29.60 in WSW 11.5 mph 29.0 mph 62 % 0.00 in
11:26 40.8 °F 28.8 °F 29.60 in SW 7.0 mph 29.0 mph 62 % 0.00 in
11:31 40.9 °F 29.3 °F 29.60 in WNW 4.5 mph 29.0 mph 63 % 0.00 in
11:36 41.0 °F 28.2 °F 29.60 in West 6.2 mph 29.0 mph 60 % 0.00 in
11:41 41.3 °F 28.4 °F 29.60 in NW 7.1 mph 29.0 mph 60 % 0.00 in
11:46 41.4 °F 27.7 °F 29.60 in West 7.5 mph 29.0 mph 58 % 0.00 in
11:51 41.5 °F 28.6 °F 29.60 in West 7.2 mph 29.0 mph 60 % 0.00 in
11:57 41.5 °F 28.2 °F 29.60 in WSW 4.9 mph 29.0 mph 59 % 0.00 in
12:02 41.6 °F 28.3 °F 29.60 in WSW 11.8 mph 29.0 mph 59 % 0.00 in
12:07 41.5 °F 28.6 °F 29.60 in West 4.1 mph 29.0 mph 60 % 0.00 in
12:12 41.4 °F 28.1 °F 29.60 in WSW 8.8 mph 29.0 mph 59 % 0.00 in
12:17 41.4 °F 28.1 °F 29.60 in WSW 4.1 mph 29.0 mph 59 % 0.00 in
12:22 41.3 °F 28.4 °F 29.60 in WSW 9.3 mph 29.0 mph 60 % 0.00 in
12:27 41.4 °F 28.5 °F 29.60 in WSW 12.1 mph 29.0 mph 60 % 0.00 in
12:32 41.4 °F 28.1 °F 29.60 in SW 6.9 mph 29.0 mph 59 % 0.00 in
12:37 41.5 °F 27.4 °F 29.61 in West 5.6 mph 29.0 mph 57 % 0.00 in
12:42 41.4 °F 26.9 °F 29.61 in West 10.3 mph 29.0 mph 56 % 0.00 in
12:47 41.1 °F 25.7 °F 29.60 in WNW 8.8 mph 29.0 mph 54 % 0.00 in
12:52 41.0 °F 26.5 °F 29.61 in SW 4.9 mph 29.0 mph 56 % 0.00 in
12:57 41.0 °F 26.5 °F 29.61 in SW 9.4 mph 29.0 mph 56 % 0.00 in
13:02 40.9 °F 26.4 °F 29.61 in WSW 9.9 mph 29.0 mph 56 % 0.00 in
13:07 40.8 °F 26.7 °F 29.61 in WNW 6.7 mph 29.0 mph 57 % 0.00 in
13:13 40.8 °F 26.7 °F 29.62 in NW 5.5 mph 29.0 mph 57 % 0.00 in
13:18 40.8 °F 25.9 °F 29.61 in SW 9.2 mph 29.0 mph 55 % 0.00 in
13:23 40.8 °F 25.0 °F 29.61 in West 10.6 mph 29.0 mph 53 % 0.00 in
13:28 40.8 °F 25.4 °F 29.62 in West 7.9 mph 29.0 mph 54 % 0.00 in
13:33 40.9 °F 25.1 °F 29.62 in WSW 6.0 mph 29.0 mph 53 % 0.00 in
13:38 40.8 °F 25.4 °F 29.62 in West 8.5 mph 29.0 mph 54 % 0.00 in
13:43 40.6 °F 25.2 °F 29.63 in SW 10.1 mph 29.0 mph 54 % 0.00 in
13:48 40.6 °F 26.1 °F 29.63 in WNW 8.0 mph 29.0 mph 56 % 0.00 in
13:53 40.5 °F 25.6 °F 29.63 in WSW 7.9 mph 29.0 mph 55 % 0.00 in
13:58 40.5 °F 26.0 °F 29.63 in WSW 8.2 mph 29.0 mph 56 % 0.00 in
14:03 40.7 °F 26.6 °F 29.63 in SW 5.1 mph 29.0 mph 57 % 0.00 in
14:09 40.9 °F 26.4 °F 29.63 in West 5.0 mph 29.0 mph 56 % 0.00 in
14:14 41.0 °F 26.5 °F 29.63 in West 4.9 mph 29.0 mph 56 % 0.00 in
14:19 41.1 °F 27.0 °F 29.63 in West 4.2 mph 29.0 mph 57 % 0.00 in
14:24 41.3 °F 26.3 °F 29.64 in SSW 10.0 mph 29.0 mph 55 % 0.00 in
14:29 41.2 °F 26.2 °F 29.64 in NNW 11.2 mph 29.0 mph 55 % 0.00 in
14:34 40.9 °F 26.0 °F 29.64 in WSW 6.0 mph 29.0 mph 55 % 0.00 in
14:39 40.7 °F 26.2 °F 29.64 in West 6.1 mph 29.0 mph 56 % 0.00 in
14:44 40.6 °F 25.7 °F 29.65 in WSW 8.5 mph 29.0 mph 55 % 0.00 in
14:49 40.5 °F 26.0 °F 29.65 in West 9.7 mph 29.0 mph 56 % 0.00 in
14:54 40.4 °F 25.9 °F 29.65 in WNW 8.9 mph 29.0 mph 56 % 0.00 in
14:59 40.3 °F 25.8 °F 29.65 in WSW 5.0 mph 29.0 mph 56 % 0.00 in
15:04 40.3 °F 25.8 °F 29.66 in WNW 6.6 mph 29.0 mph 56 % 0.00 in
15:09 40.1 °F 25.6 °F 29.66 in West 9.0 mph 21.0 mph 56 % 0.00 in
15:14 39.8 °F 25.4 °F 29.66 in WSW 7.6 mph 29.0 mph 56 % 0.00 in
15:19 39.6 °F 25.6 °F 29.66 in West 3.0 mph 17.0 mph 57 % 0.00 in
15:24 39.5 °F 25.9 °F 29.66 in WNW 1.9 mph 29.0 mph 58 % 0.00 in
15:29 39.3 °F 25.3 °F 29.66 in WNW 6.0 mph 15.0 mph 57 % 0.00 in
15:34 39.1 °F 25.6 °F 29.66 in WNW 6.0 mph 14.0 mph 58 % 0.00 in
15:39 39.0 °F 25.9 °F 29.67 in West 7.0 mph 12.0 mph 59 % 0.00 in
15:44 38.9 °F 26.6 °F 29.67 in WNW 7.0 mph 13.0 mph 61 % 0.00 in
15:49 38.9 °F 27.0 °F 29.67 in WNW 2.0 mph 10.0 mph 62 % 0.00 in
15:54 38.8 °F 26.9 °F 29.68 in WNW 2.0 mph 12.0 mph 62 % 0.00 in
15:59 38.7 °F 27.2 °F 29.69 in WNW 5.4 mph 29.0 mph 63 % 0.00 in
16:04 38.7 °F 27.2 °F 29.69 in WNW 4.0 mph 29.0 mph 63 % 0.00 in
16:09 38.7 °F 27.2 °F 29.69 in NNW 4.6 mph 29.0 mph 63 % 0.00 in
16:15 38.8 °F 26.9 °F 29.70 in NW 3.8 mph 29.0 mph 62 % 0.00 in
16:20 38.7 °F 27.2 °F 29.69 in WNW 5.1 mph 29.0 mph 63 % 0.00 in
16:25 38.8 °F 27.3 °F 29.71 in WNW 9.3 mph 29.0 mph 63 % 0.00 in
16:30 38.6 °F 28.2 °F 29.71 in West 6.7 mph 29.0 mph 66 % 0.00 in
16:35 38.2 °F 28.9 °F 29.71 in WNW 3.7 mph 29.0 mph 69 % 0.00 in
16:40 37.8 °F 28.5 °F 29.71 in West 3.4 mph 29.0 mph 69 % 0.00 in
16:45 37.4 °F 28.9 °F 29.71 in WNW 4.1 mph 29.0 mph 71 % 0.00 in
16:50 37.0 °F 28.8 °F 29.72 in West 4.4 mph 29.0 mph 72 % 0.00 in
16:55 36.7 °F 29.2 °F 29.72 in West 4.4 mph 29.0 mph 74 % 0.00 in
17:00 36.5 °F 29.3 °F 29.73 in WNW 3.5 mph 29.0 mph 75 % 0.00 in
17:05 36.3 °F 29.5 °F 29.73 in WSW 3.7 mph 29.0 mph 76 % 0.00 in
17:10 36.2 °F 29.4 °F 29.73 in WNW 4.9 mph 29.0 mph 76 % 0.00 in
17:15 36.1 °F 28.6 °F 29.74 in SW 9.1 mph 29.0 mph 74 % 0.00 in
17:21 36.1 °F 28.6 °F 29.74 in WNW 10.8 mph 29.0 mph 74 % 0.00 in
17:26 36.0 °F 29.2 °F 29.74 in West 8.1 mph 29.0 mph 76 % 0.00 in
17:31 36.0 °F 29.5 °F 29.75 in SW 9.5 mph 29.0 mph 77 % 0.00 in
17:36 35.9 °F 29.7 °F 29.75 in WNW 6.0 mph 29.0 mph 78 % 0.00 in
17:41 35.9 °F 29.4 °F 29.76 in SW 7.1 mph 29.0 mph 77 % 0.00 in
17:46 35.8 °F 29.6 °F 29.76 in West 7.8 mph 29.0 mph 78 % 0.00 in
17:51 35.8 °F 29.6 °F 29.76 in WSW 6.4 mph 29.0 mph 78 % 0.00 in
18:01 35.7 °F 29.2 °F 29.77 in WSW 6.7 mph 29.0 mph 77 % 0.00 in
18:06 35.6 °F 28.8 °F 29.77 in WSW 5.8 mph 29.0 mph 76 % 0.00 in
18:11 35.5 °F 28.7 °F 29.78 in WSW 3.0 mph 29.0 mph 76 % 0.00 in
18:16 35.4 °F 28.9 °F 29.78 in WNW 7.0 mph 29.0 mph 77 % 0.00 in
18:21 35.4 °F 28.9 °F 29.78 in WSW 7.2 mph 29.0 mph 77 % 0.00 in
18:26 35.3 °F 28.8 °F 29.78 in WSW 3.5 mph 29.0 mph 77 % 0.00 in
18:31 35.3 °F 28.5 °F 29.79 in WSW 8.2 mph 29.0 mph 76 % 0.00 in
18:37 35.2 °F 28.7 °F 29.79 in SW 4.5 mph 29.0 mph 77 % 0.00 in
18:42 35.2 °F 28.7 °F 29.79 in West 2.7 mph 29.0 mph 77 % 0.00 in
18:47 35.3 °F 28.5 °F 29.80 in SW 3.6 mph 29.0 mph 76 % 0.00 in
18:52 35.4 °F 28.6 °F 29.80 in WSW 6.3 mph 29.0 mph 76 % 0.00 in
18:57 35.4 °F 28.3 °F 29.80 in SW 3.7 mph 29.0 mph 75 % 0.00 in
19:02 35.4 °F 28.3 °F 29.81 in WSW 9.4 mph 29.0 mph 75 % 0.00 in
19:07 35.5 °F 28.0 °F 29.81 in West 8.2 mph 29.0 mph 74 % 0.00 in
19:12 35.6 °F 27.5 °F 29.81 in WNW 7.7 mph 29.0 mph 72 % 0.00 in
19:17 35.7 °F 27.6 °F 29.82 in WSW 8.1 mph 29.0 mph 72 % 0.00 in
19:22 35.8 °F 27.3 °F 29.82 in WSW 5.5 mph 29.0 mph 71 % 0.00 in
19:27 35.9 °F 27.4 °F 29.83 in WSW 5.4 mph 29.0 mph 71 % 0.00 in
19:32 35.9 °F 27.4 °F 29.83 in West 3.5 mph 29.0 mph 71 % 0.00 in
19:37 35.8 °F 27.3 °F 29.83 in West 5.2 mph 29.0 mph 71 % 0.00 in
19:43 35.7 °F 27.2 °F 29.84 in WSW 8.0 mph 29.0 mph 71 % 0.00 in
19:48 35.7 °F 26.9 °F 29.84 in WSW 6.7 mph 29.0 mph 70 % 0.00 in
19:53 35.6 °F 26.8 °F 29.84 in WSW 7.8 mph 29.0 mph 70 % 0.00 in
19:55 35.6 °F 26.8 °F 29.84 in WSW 7.7 mph 29.0 mph 70 % 0.00 in
20:00 35.5 °F 26.3 °F 29.84 in WNW 7.9 mph 29.0 mph 69 % 0.00 in
20:05 35.6 °F 26.4 °F 29.84 in West 8.3 mph 29.0 mph 69 % 0.00 in
20:10 35.6 °F 26.8 °F 29.84 in NW 6.5 mph 29.0 mph 70 % 0.00 in
20:15 35.5 °F 27.0 °F 29.84 in WSW 7.7 mph 29.0 mph 71 % 0.00 in
20:20 35.5 °F 27.0 °F 29.84 in WSW 5.0 mph 29.0 mph 71 % 0.00 in
20:25 35.3 °F 27.2 °F 29.85 in WNW 5.4 mph 29.0 mph 72 % 0.00 in
20:30 35.2 °F 27.4 °F 29.85 in WSW 4.7 mph 29.0 mph 73 % 0.00 in
20:35 35.1 °F 27.6 °F 29.85 in WNW 2.4 mph 29.0 mph 74 % 0.00 in
20:40 35.0 °F 27.9 °F 29.85 in WNW 3.9 mph 29.0 mph 75 % 0.00 in
20:45 34.8 °F 28.0 °F 29.85 in WNW 3.3 mph 29.0 mph 76 % 0.00 in
20:50 34.7 °F 28.2 °F 29.86 in West 5.2 mph 29.0 mph 77 % 0.00 in
20:56 34.6 °F 28.1 °F 29.86 in WNW 1.5 mph 29.0 mph 77 % 0.00 in
21:01 34.6 °F 28.4 °F 29.87 in WNW 6.2 mph 29.0 mph 78 % 0.00 in
21:06 34.6 °F 28.1 °F 29.87 in SW 6.5 mph 29.0 mph 77 % 0.00 in
21:11 34.6 °F 28.1 °F 29.86 in West 6.1 mph 29.0 mph 77 % 0.00 in
21:16 34.5 °F 28.0 °F 29.86 in West 3.6 mph 29.0 mph 77 % 0.00 in
21:21 34.4 °F 27.6 °F 29.87 in WNW 4.2 mph 29.0 mph 76 % 0.00 in
21:26 34.3 °F 27.8 °F 29.87 in NW 3.6 mph 29.0 mph 77 % 0.00 in
21:31 34.3 °F 28.2 °F 29.87 in West 4.4 mph 29.0 mph 78 % 0.00 in
21:36 34.2 °F 28.1 °F 29.87 in West 5.0 mph 29.0 mph 78 % 0.00 in
21:41 34.1 °F 28.0 °F 29.88 in West 2.5 mph 29.0 mph 78 % 0.00 in
21:46 34.1 °F 28.0 °F 29.88 in WSW 4.5 mph 29.0 mph 78 % 0.00 in
21:51 34.1 °F 28.0 °F 29.89 in WSW 6.6 mph 29.0 mph 78 % 0.00 in
21:56 34.1 °F 28.0 °F 29.89 in West 5.7 mph 29.0 mph 78 % 0.00 in
22:01 34.2 °F 28.1 °F 29.89 in WSW 2.8 mph 29.0 mph 78 % 0.00 in
22:06 34.1 °F 27.3 °F 29.90 in WNW 4.7 mph 29.0 mph 76 % 0.00 in
22:11 34.1 °F 27.3 °F 29.89 in WSW 7.0 mph 29.0 mph 76 % 0.00 in
22:16 34.2 °F 27.1 °F 29.90 in WSW 5.5 mph 29.0 mph 75 % 0.00 in
22:22 34.2 °F 27.1 °F 29.90 in West 5.9 mph 29.0 mph 75 % 0.00 in
22:27 34.2 °F 27.1 °F 29.91 in West 6.8 mph 29.0 mph 75 % 0.00 in
22:32 34.3 °F 26.5 °F 29.91 in West 4.6 mph 29.0 mph 73 % 0.00 in
22:37 34.3 °F 26.2 °F 29.91 in WNW 3.3 mph 29.0 mph 72 % 0.00 in
22:42 34.3 °F 25.5 °F 29.91 in NW 8.4 mph 29.0 mph 70 % 0.00 in
22:47 34.5 °F 25.4 °F 29.91 in West 6.3 mph 29.0 mph 69 % 0.00 in
22:52 34.6 °F 25.1 °F 29.92 in WSW 6.0 mph 29.0 mph 68 % 0.00 in
22:57 34.7 °F 24.9 °F 29.92 in West 1.5 mph 29.0 mph 67 % 0.00 in
23:02 34.7 °F 24.9 °F 29.92 in SW 9.1 mph 29.0 mph 67 % 0.00 in
23:07 34.7 °F 24.9 °F 29.92 in West 5.7 mph 29.0 mph 67 % 0.00 in
23:12 34.7 °F 24.1 °F 29.92 in WSW 4.4 mph 29.0 mph 65 % 0.00 in
23:17 34.7 °F 24.1 °F 29.92 in WNW 4.1 mph 29.0 mph 65 % 0.00 in
23:22 34.8 °F 24.2 °F 29.92 in West 8.8 mph 29.0 mph 65 % 0.00 in
23:27 34.7 °F 24.1 °F 29.93 in West 7.5 mph 29.0 mph 65 % 0.00 in
23:32 34.7 °F 23.8 °F 29.93 in NW 6.2 mph 29.0 mph 64 % 0.00 in
23:37 34.7 °F 24.1 °F 29.93 in West 5.5 mph 29.0 mph 65 % 0.00 in
23:42 34.6 °F 24.0 °F 29.94 in WNW 7.7 mph 29.0 mph 65 % 0.00 in
23:48 34.6 °F 23.7 °F 29.93 in WNW 9.1 mph 29.0 mph 64 % 0.00 in
23:52 34.5 °F 23.2 °F 29.94 in WNW 7.7 mph 29.0 mph 63 % 0.00 in
23:58 34.5 °F 23.6 °F 29.95 in WNW 5.9 mph 29.0 mph 64 % 0.00 in
Crab Meadow Weather
Compliments of Weather Underground - 3 mb

Script developed by  Jim McMurry - jmcmurry@mwt.net Adapted for the template by  Wim van der Kuil - Leuven-Template.eu

Dew Point: The dew point is the temperature to which air must be cooled, at constant barometric pressure, for water vapor to condense into water. The condensed water is called dew. When the dew point temperature falls below freezing it is called the frost point, as the water no longer creates dew but instead creates frost. The dew point is associated with relative humidity. A high relative humidity indicates that the dew point is closer to the current air temperature. If the relative humidity is 100%, the dew point is equal to the current temperature. Given a constant dew point, an increase in temperature will lead to a decrease in relative humidity.